User: anonymous   Login
Location: S�tio Afonso Gruber
(26.1760°S, 49.5250°W)
Time: 10:35:36
(UTC+00:00)
Language:

ITAMSAT 1 - Orbit

View from above orbital plane
View from above orbital plane
View from above satellite
View from above satellite

Ground track
Ground track

The orbit data is extracted from the following two-line orbital elements,

1 22826U 93061D   22333.53390110  .00000070  00000-0  44455-4 0  9997
2 22826  98.8641   7.7945 0007923 277.7332  82.2950 14.30564194522015
Epoch (UTC): 29 November 2022 12:48:49
Eccentricity: 0.0007923
inclination: 98.8641°
perigee height: 784 km
apogee height: 795 km
right ascension of ascending node: 7.7945°
argument of perigee: 277.7332°
revolutions per day: 14.30564194
mean anomaly at epoch: 82.2950°
orbit number at epoch: 52201

The dashed part of the orbit path shows where the satellite is in the earth's shadow,  

DLR